This is the latest recevied weather packets stored in our database for station/object SQ3MKP-13. If no packets are shown the sender has not sent any weather packets the latest 10 day(s).
| Time | Temp. | Humidity | Pressure | Rain* | Wind** | Luminosity | Snow |
|---|---|---|---|---|---|---|---|
| 1788529048 | 24.44° C | 63% | 996.4 hPa | - | - | 253 W/m² | - |
| 1788528747 | 24.44° C | 63% | 996.5 hPa | - | - | 392 W/m² | - |
| 1788528447 | 23.89° C | 64% | 996.6 hPa | - | - | 521 W/m² | - |
| 1788528145 | 23.89° C | 65% | 996.7 hPa | - | - | 326 W/m² | - |
| 1788527845 | 23.33° C | 65% | 996.6 hPa | - | - | 404 W/m² | - |
| 1788527543 | 23.33° C | 67% | 996.9 hPa | - | - | 492 W/m² | - |
| 1788527242 | 23.33° C | 67% | 997 hPa | - | - | 438 W/m² | - |
| 1788526941 | 22.78° C | 68% | 997.2 hPa | - | - | 531 W/m² | - |
| 1788526640 | 22.22° C | 70% | 997.5 hPa | - | - | 374 W/m² | - |
| 1788526362 | 22.22° C | 69% | 997.6 hPa | - | - | 61 W/m² | - |
| 1788526038 | 22.78° C | 68% | 997.8 hPa | - | - | 61 W/m² | - |
| 1788525737 | 23.33° C | 66% | 997.8 hPa | - | - | 182 W/m² | - |
| 1788525436 | 23.33° C | 66% | 997.8 hPa | - | - | 378 W/m² | - |
| 1788525134 | 22.78° C | 66% | 997.8 hPa | - | - | 434 W/m² | - |
| 1788524833 | 22.78° C | 67% | 997.8 hPa | - | - | 446 W/m² | - |
| 1788524532 | 22.22° C | 68% | 998.1 hPa | - | - | 297 W/m² | - |
| 1788524231 | 22.22° C | 68% | 998.1 hPa | - | - | 316 W/m² | - |
| 1788523930 | 22.22° C | 68% | 998.3 hPa | - | - | 118 W/m² | - |
| 1788523629 | 22.78° C | 67% | 998.5 hPa | - | - | 224 W/m² | - |
| 1788523328 | 22.78° C | 67% | 998.7 hPa | - | - | 258 W/m² | - |
| 1788523027 | 22.78° C | 65% | 998.8 hPa | - | - | 190 W/m² | - |
| 1788522726 | 22.22° C | 65% | 998.9 hPa | - | - | 548 W/m² | - |
| 1788522425 | 22.22° C | 66% | 998.9 hPa | - | - | 388 W/m² | - |
| 1788522141 | 21.67° C | 66% | 999 hPa | - | - | 311 W/m² | - |
| 1788521824 | 21.67° C | 67% | 999.1 hPa | - | - | 276 W/m² | - |
* Rain since midnight (hover to see other rain measurements)
** Current wind speed in m/s (hover to see current wind gust speed)